Location: ????????
(55.4000°N, 39.1167°E)
Time: 10:14:19
(UTC+00:00)

IRIDIUM 114 - Pass Details

Date: 19 May 2025
Orbit: 776 x 779 km, 86.4° (Epoch: 13 June)

Event Time Altitude Azimuth Distance (km) Brightness Sun altitude
Exits shadow 22:31:44 17° 177° (S) 1,891 5.8 -13.1°
Maximum altitude 22:35:48 80° 93° (E) 799 4.4 -12.9°
Drops below altitude 10° 22:41:04 10° 7° (N) 2,345 8.2 -12.7°
Sets 22:43:25 0° 6° (N) 3,277 9.3 -12.6°
